Year,Month,Day,Hour,Minute,Value (Times are PST for temperature in C)
2010,05,22,00,00,7.40
2010,05,22,00,01,7.40
2010,05,22,00,02,7.40
2010,05,22,00,03,7.40
2010,05,22,00,04,7.40
2010,05,22,00,05,7.40
2010,05,22,00,06,7.30
2010,05,22,00,07,7.30
2010,05,22,00,08,7.30
2010,05,22,00,09,7.30
2010,05,22,00,10,7.30
2010,05,22,00,11,7.30
2010,05,22,00,12,7.30
2010,05,22,00,13,7.30
2010,05,22,00,14,7.30
2010,05,22,00,15,7.30
2010,05,22,00,16,7.30
2010,05,22,00,17,7.30
2010,05,22,00,18,7.30
2010,05,22,00,19,7.30
2010,05,22,00,20,7.30
2010,05,22,00,21,7.30
2010,05,22,00,22,7.30
2010,05,22,00,23,7.30
2010,05,22,00,24,7.30
2010,05,22,00,25,7.30
2010,05,22,00,26,7.30
2010,05,22,00,27,7.30
2010,05,22,00,28,7.30
2010,05,22,00,29,7.30
2010,05,22,00,30,7.30
2010,05,22,00,31,7.30
2010,05,22,00,32,7.30
2010,05,22,00,33,7.30
2010,05,22,00,34,7.30
2010,05,22,00,35,7.30
2010,05,22,00,36,7.30
2010,05,22,00,37,7.30
2010,05,22,00,38,7.30
2010,05,22,00,39,7.30
2010,05,22,00,40,7.30
2010,05,22,00,41,7.30
2010,05,22,00,42,7.30
2010,05,22,00,43,7.30
2010,05,22,00,44,7.30
2010,05,22,00,45,7.30
2010,05,22,00,46,7.30
2010,05,22,00,47,7.30
2010,05,22,00,48,7.30
2010,05,22,00,49,7.30
2010,05,22,00,50,7.30
2010,05,22,00,51,7.30
2010,05,22,00,52,7.20
2010,05,22,00,53,7.20
2010,05,22,00,54,7.20
2010,05,22,00,55,7.20
2010,05,22,00,56,7.20
2010,05,22,00,57,7.20
2010,05,22,00,58,7.20
2010,05,22,00,59,7.10
2010,05,22,01,00,7.10
2010,05,22,01,01,7.10
2010,05,22,01,02,7.10
2010,05,22,01,03,7.10
2010,05,22,01,04,7.10
2010,05,22,01,05,7.10
2010,05,22,01,06,7.10
2010,05,22,01,07,7.10
2010,05,22,01,08,7.10
2010,05,22,01,09,7.10
2010,05,22,01,10,7.10
2010,05,22,01,11,7.10
2010,05,22,01,12,7.10
2010,05,22,01,13,7.10
2010,05,22,01,14,7.10
2010,05,22,01,15,7.00
2010,05,22,01,16,7.00
2010,05,22,01,17,7.00
2010,05,22,01,18,7.00
2010,05,22,01,19,7.00
2010,05,22,01,20,7.00
2010,05,22,01,21,7.00
2010,05,22,01,22,7.00
2010,05,22,01,23,7.00
2010,05,22,01,24,7.00
2010,05,22,01,25,7.00
2010,05,22,01,26,6.90
2010,05,22,01,27,6.90
2010,05,22,01,28,7.00
2010,05,22,01,29,7.00
2010,05,22,01,30,6.90
2010,05,22,01,31,6.90
2010,05,22,01,32,6.90
2010,05,22,01,33,6.90
2010,05,22,01,34,6.90
2010,05,22,01,35,6.90
2010,05,22,01,36,6.90
2010,05,22,01,37,6.90
2010,05,22,01,38,6.90
2010,05,22,01,39,6.90
2010,05,22,01,40,6.90
2010,05,22,01,41,6.90
2010,05,22,01,42,6.90
2010,05,22,01,43,6.90
2010,05,22,01,44,6.90
2010,05,22,01,45,6.90
2010,05,22,01,46,6.90
2010,05,22,01,47,6.90
2010,05,22,01,48,6.90
2010,05,22,01,49,6.90
2010,05,22,01,50,6.90
2010,05,22,01,51,6.90
2010,05,22,01,52,6.90
2010,05,22,01,53,6.90
2010,05,22,01,54,6.90
2010,05,22,01,55,6.90
2010,05,22,01,56,6.90
2010,05,22,01,57,6.90
2010,05,22,01,58,6.90
2010,05,22,01,59,6.90
2010,05,22,02,00,6.80
2010,05,22,02,01,6.80
2010,05,22,02,02,6.80
2010,05,22,02,03,6.80
2010,05,22,02,04,6.80
2010,05,22,02,05,6.80
2010,05,22,02,06,6.80
2010,05,22,02,07,6.80
2010,05,22,02,08,6.80
2010,05,22,02,09,6.80
2010,05,22,02,10,6.80
2010,05,22,02,11,6.80
2010,05,22,02,12,6.80
2010,05,22,02,13,6.80
2010,05,22,02,14,6.80
2010,05,22,02,15,6.80
2010,05,22,02,16,6.70
2010,05,22,02,17,6.70
2010,05,22,02,18,6.70
2010,05,22,02,19,6.70
2010,05,22,02,20,6.70
2010,05,22,02,21,6.70
2010,05,22,02,22,6.70
2010,05,22,02,23,6.70
2010,05,22,02,24,6.70
2010,05,22,02,25,6.70
2010,05,22,02,26,6.70
2010,05,22,02,27,6.70
2010,05,22,02,28,6.70
2010,05,22,02,29,6.70
2010,05,22,02,30,6.70
2010,05,22,02,31,6.70
2010,05,22,02,32,6.70
2010,05,22,02,33,6.70
2010,05,22,02,34,6.70
2010,05,22,02,35,6.70
2010,05,22,02,36,6.70
2010,05,22,02,37,6.70
2010,05,22,02,38,6.70
2010,05,22,02,39,6.70
2010,05,22,02,40,6.70
2010,05,22,02,41,6.70
2010,05,22,02,42,6.70
2010,05,22,02,43,6.70
2010,05,22,02,44,6.70
2010,05,22,02,45,6.70
2010,05,22,02,46,6.70
2010,05,22,02,47,6.60
2010,05,22,02,48,6.60
2010,05,22,02,49,6.70
2010,05,22,02,50,6.70
2010,05,22,02,51,6.70
2010,05,22,02,52,6.70
2010,05,22,02,53,6.70
2010,05,22,02,54,6.70
2010,05,22,02,55,6.70
2010,05,22,02,56,6.60
2010,05,22,02,57,6.60
2010,05,22,02,58,6.60
2010,05,22,02,59,6.60
2010,05,22,03,00,6.60
2010,05,22,03,01,6.60
2010,05,22,03,02,6.60
2010,05,22,03,03,6.60
2010,05,22,03,04,6.60
2010,05,22,03,05,6.60
2010,05,22,03,06,6.60
2010,05,22,03,07,6.60
2010,05,22,03,08,6.60
2010,05,22,03,09,6.60
2010,05,22,03,10,6.60
2010,05,22,03,11,6.60
2010,05,22,03,12,6.60
2010,05,22,03,13,6.60
2010,05,22,03,14,6.60
2010,05,22,03,15,6.60
2010,05,22,03,16,6.60
2010,05,22,03,17,6.60
2010,05,22,03,18,6.60
2010,05,22,03,19,6.60
2010,05,22,03,20,6.60
2010,05,22,03,21,6.60
2010,05,22,03,22,6.60
2010,05,22,03,23,6.60
2010,05,22,03,24,6.60
2010,05,22,03,25,6.60
2010,05,22,03,26,6.60
2010,05,22,03,27,6.60
2010,05,22,03,28,6.60
2010,05,22,03,29,6.60
2010,05,22,03,30,6.70
2010,05,22,03,31,6.70
2010,05,22,03,32,6.70
2010,05,22,03,33,6.70
2010,05,22,03,34,6.70
2010,05,22,03,35,6.70
2010,05,22,03,36,6.80
2010,05,22,03,37,6.80
2010,05,22,03,38,6.80
2010,05,22,03,39,6.80
2010,05,22,03,40,6.80
2010,05,22,03,41,6.90
2010,05,22,03,42,6.90
2010,05,22,03,43,6.90
2010,05,22,03,44,6.90
2010,05,22,03,45,7.00
2010,05,22,03,46,7.00
2010,05,22,03,47,7.00
2010,05,22,03,48,7.00
2010,05,22,03,49,7.10
2010,05,22,03,50,7.10
2010,05,22,03,51,7.10
2010,05,22,03,52,7.10
2010,05,22,03,53,7.10
2010,05,22,03,54,7.10
2010,05,22,03,55,7.10
2010,05,22,03,56,7.10
2010,05,22,03,57,7.10
2010,05,22,03,58,7.10
2010,05,22,03,59,7.10
2010,05,22,04,00,7.10
2010,05,22,04,01,7.10
2010,05,22,04,02,7.10
2010,05,22,04,03,7.10
2010,05,22,04,04,7.10
2010,05,22,04,05,7.10
2010,05,22,04,06,7.10
2010,05,22,04,07,7.10
2010,05,22,04,08,7.10
2010,05,22,04,09,7.10
2010,05,22,04,10,7.10
2010,05,22,04,11,7.10
2010,05,22,04,12,7.10
2010,05,22,04,13,7.10
2010,05,22,04,14,7.10
2010,05,22,04,15,7.10
2010,05,22,04,16,7.10
2010,05,22,04,17,7.10
2010,05,22,04,18,7.10
2010,05,22,04,19,7.10
2010,05,22,04,20,7.10
2010,05,22,04,21,7.10
2010,05,22,04,22,7.10
2010,05,22,04,23,7.00
2010,05,22,04,24,7.00
2010,05,22,04,25,7.00
2010,05,22,04,26,7.00
2010,05,22,04,27,7.00
2010,05,22,04,28,7.00
2010,05,22,04,29,7.00
2010,05,22,04,30,6.90
2010,05,22,04,31,6.90
2010,05,22,04,32,6.90
2010,05,22,04,33,6.90
2010,05,22,04,34,6.90
2010,05,22,04,35,6.90
2010,05,22,04,36,6.90
2010,05,22,04,37,6.90
2010,05,22,04,38,6.90
2010,05,22,04,39,6.90
2010,05,22,04,40,6.90
2010,05,22,04,41,6.90
2010,05,22,04,42,6.90
2010,05,22,04,43,6.90
2010,05,22,04,44,6.80
2010,05,22,04,45,6.80
2010,05,22,04,46,6.90
2010,05,22,04,47,6.90
2010,05,22,04,48,6.90
2010,05,22,04,49,6.90
2010,05,22,04,50,6.90
2010,05,22,04,51,6.90
2010,05,22,04,52,6.90
2010,05,22,04,53,6.90
2010,05,22,04,54,6.90
2010,05,22,04,55,6.90
2010,05,22,04,56,6.90
2010,05,22,04,57,6.90
2010,05,22,04,58,6.90
2010,05,22,04,59,6.90
2010,05,22,05,00,7.00
2010,05,22,05,01,7.00
2010,05,22,05,02,7.00
2010,05,22,05,03,7.00
2010,05,22,05,04,7.00
2010,05,22,05,05,7.00
2010,05,22,05,06,7.00
2010,05,22,05,07,7.00
2010,05,22,05,08,7.00
2010,05,22,05,09,7.00
2010,05,22,05,10,7.00
2010,05,22,05,11,6.90
2010,05,22,05,12,6.90
2010,05,22,05,13,6.90
2010,05,22,05,14,6.90
2010,05,22,05,15,6.90
2010,05,22,05,16,6.90
2010,05,22,05,17,6.90
2010,05,22,05,18,6.80
2010,05,22,05,19,6.80
2010,05,22,05,20,6.80
2010,05,22,05,21,6.80
2010,05,22,05,22,6.80
2010,05,22,05,23,6.80
2010,05,22,05,24,6.90
2010,05,22,05,25,6.90
2010,05,22,05,26,6.90
2010,05,22,05,27,6.90
2010,05,22,05,28,6.90
2010,05,22,05,29,6.90
2010,05,22,05,30,6.90
2010,05,22,05,31,6.90
2010,05,22,05,32,6.90
2010,05,22,05,33,6.80
2010,05,22,05,34,6.80
2010,05,22,05,35,6.80
2010,05,22,05,36,6.80
2010,05,22,05,37,6.80
2010,05,22,05,38,6.80
2010,05,22,05,39,6.80
2010,05,22,05,40,6.80
2010,05,22,05,41,6.80
2010,05,22,05,42,6.80
2010,05,22,05,43,6.80
2010,05,22,05,44,6.80
2010,05,22,05,45,6.80
2010,05,22,05,46,6.80
2010,05,22,05,47,6.80
2010,05,22,05,48,6.80
2010,05,22,05,49,6.80
2010,05,22,05,50,6.80
2010,05,22,05,51,6.80
2010,05,22,05,52,6.80
2010,05,22,05,53,6.80
2010,05,22,05,54,6.80
2010,05,22,05,55,6.80
2010,05,22,05,56,6.80
2010,05,22,05,57,6.80
2010,05,22,05,58,6.80
2010,05,22,05,59,6.80
2010,05,22,06,00,6.80
2010,05,22,06,01,6.80
2010,05,22,06,02,6.90
2010,05,22,06,03,6.90
2010,05,22,06,04,6.90
2010,05,22,06,05,6.90
2010,05,22,06,06,6.90
2010,05,22,06,07,6.90
2010,05,22,06,08,7.00
2010,05,22,06,09,7.00
2010,05,22,06,10,7.00
2010,05,22,06,11,7.00
2010,05,22,06,12,7.00
2010,05,22,06,13,7.00
2010,05,22,06,14,7.00
2010,05,22,06,15,7.10
2010,05,22,06,16,7.10
2010,05,22,06,17,7.10
2010,05,22,06,18,7.20
2010,05,22,06,19,7.20
2010,05,22,06,20,7.20
2010,05,22,06,21,7.20
2010,05,22,06,22,7.20
2010,05,22,06,23,7.20
2010,05,22,06,24,7.20
2010,05,22,06,25,7.30
2010,05,22,06,26,7.30
2010,05,22,06,27,7.30
2010,05,22,06,28,7.30
2010,05,22,06,29,7.30
2010,05,22,06,30,7.30
2010,05,22,06,31,7.30
2010,05,22,06,32,7.30
2010,05,22,06,33,7.30
2010,05,22,06,34,7.30
2010,05,22,06,35,7.30
2010,05,22,06,36,7.30
2010,05,22,06,37,7.30
2010,05,22,06,38,7.30
2010,05,22,06,39,7.30
2010,05,22,06,40,7.30
2010,05,22,06,41,7.30
2010,05,22,06,42,7.30
2010,05,22,06,43,7.30
2010,05,22,06,44,7.40
2010,05,22,06,45,7.40
2010,05,22,06,46,7.50
2010,05,22,06,47,7.50
2010,05,22,06,48,7.60
2010,05,22,06,49,7.60
2010,05,22,06,50,7.70
2010,05,22,06,51,7.70
2010,05,22,06,52,7.80
2010,05,22,06,53,7.80
2010,05,22,06,54,7.80
2010,05,22,06,55,7.80
2010,05,22,06,56,7.90
2010,05,22,06,57,7.90
2010,05,22,06,58,8.00
2010,05,22,06,59,8.00
2010,05,22,07,00,8.00
2010,05,22,07,01,8.00
2010,05,22,07,02,8.10
2010,05,22,07,03,8.10
2010,05,22,07,04,8.20
2010,05,22,07,05,8.20
2010,05,22,07,06,8.20
2010,05,22,07,07,8.20
2010,05,22,07,08,8.20
2010,05,22,07,09,8.30
2010,05,22,07,10,8.30
2010,05,22,07,11,8.40
2010,05,22,07,12,8.40
2010,05,22,07,13,8.40
2010,05,22,07,14,8.50
2010,05,22,07,15,8.50
2010,05,22,07,16,8.60
2010,05,22,07,17,8.60
2010,05,22,07,18,8.60
2010,05,22,07,19,8.70
2010,05,22,07,20,8.70
2010,05,22,07,21,8.70
2010,05,22,07,22,8.70
2010,05,22,07,23,8.70
2010,05,22,07,24,8.70
2010,05,22,07,25,8.70
2010,05,22,07,26,8.80
2010,05,22,07,27,8.80
2010,05,22,07,28,8.80
2010,05,22,07,29,8.90
2010,05,22,07,30,8.90
2010,05,22,07,31,8.90
2010,05,22,07,32,9.00
2010,05,22,07,33,9.00
2010,05,22,07,34,9.00
2010,05,22,07,35,9.00
2010,05,22,07,36,9.10
2010,05,22,07,37,9.10
2010,05,22,07,38,9.10
2010,05,22,07,39,9.10
2010,05,22,07,40,9.10
2010,05,22,07,41,9.10
2010,05,22,07,42,9.20
2010,05,22,07,43,9.20
2010,05,22,07,44,9.20
2010,05,22,07,45,9.20
2010,05,22,07,46,9.20
2010,05,22,07,47,9.30
2010,05,22,07,48,9.30
2010,05,22,07,49,9.40
2010,05,22,07,50,9.40
2010,05,22,07,51,9.40
2010,05,22,07,52,9.50
2010,05,22,07,53,9.50
2010,05,22,07,54,9.60
2010,05,22,07,55,9.60
2010,05,22,07,56,9.70
2010,05,22,07,57,9.70
2010,05,22,07,58,9.70
2010,05,22,07,59,9.70
2010,05,22,08,00,9.80
2010,05,22,08,01,9.80
2010,05,22,08,02,9.80
2010,05,22,08,03,9.80
2010,05,22,08,04,9.90
2010,05,22,08,05,9.90
2010,05,22,08,06,9.90
2010,05,22,08,07,9.90
2010,05,22,08,08,9.90
2010,05,22,08,09,9.90
2010,05,22,08,10,9.90
2010,05,22,08,11,10.10
2010,05,22,08,12,10.10
2010,05,22,08,13,10.10
2010,05,22,08,14,10.10
2010,05,22,08,15,10.20
2010,05,22,08,16,10.20
2010,05,22,08,17,10.30
2010,05,22,08,18,10.30
2010,05,22,08,19,10.40
2010,05,22,08,20,10.40
2010,05,22,08,21,10.50
2010,05,22,08,22,10.60
2010,05,22,08,23,10.60
2010,05,22,08,24,10.60
2010,05,22,08,25,10.70
2010,05,22,08,26,10.70
2010,05,22,08,27,10.80
2010,05,22,08,28,10.90
2010,05,22,08,29,10.90
2010,05,22,08,30,10.90
2010,05,22,08,31,10.90
2010,05,22,08,32,11.00
2010,05,22,08,33,11.10
2010,05,22,08,34,11.10
2010,05,22,08,35,11.10
2010,05,22,08,36,11.10
2010,05,22,08,37,11.10
2010,05,22,08,38,11.10
2010,05,22,08,39,11.10
2010,05,22,08,40,11.20
2010,05,22,08,41,11.30
2010,05,22,08,42,11.30
2010,05,22,08,43,11.40
2010,05,22,08,44,11.50
2010,05,22,08,45,11.60
2010,05,22,08,46,11.60
2010,05,22,08,47,11.70
2010,05,22,08,48,11.70
2010,05,22,08,49,11.70
2010,05,22,08,50,11.60
2010,05,22,08,51,11.60
2010,05,22,08,52,11.60
2010,05,22,08,53,11.60
2010,05,22,08,54,11.70
2010,05,22,08,55,11.80
2010,05,22,08,56,11.80
2010,05,22,08,57,11.90
2010,05,22,08,58,11.90
2010,05,22,08,59,11.90
2010,05,22,09,00,11.90
2010,05,22,09,01,11.90
2010,05,22,09,02,12.00
2010,05,22,09,03,12.00
2010,05,22,09,04,12.10
2010,05,22,09,05,12.10
2010,05,22,09,06,12.20
2010,05,22,09,07,12.20
2010,05,22,09,08,12.20
2010,05,22,09,09,12.20
2010,05,22,09,10,12.20
2010,05,22,09,11,12.20
2010,05,22,09,12,12.30
2010,05,22,09,13,12.30
2010,05,22,09,14,12.30
2010,05,22,09,15,12.30
2010,05,22,09,16,12.30
2010,05,22,09,17,12.40
2010,05,22,09,18,12.40
2010,05,22,09,19,12.40
2010,05,22,09,20,12.50
2010,05,22,09,21,12.50
2010,05,22,09,22,12.50
2010,05,22,09,23,12.50
2010,05,22,09,24,12.60
2010,05,22,09,25,12.60
2010,05,22,09,26,12.60
2010,05,22,09,27,12.60
2010,05,22,09,28,12.50
2010,05,22,09,29,12.50
2010,05,22,09,30,12.60
2010,05,22,09,31,12.60
2010,05,22,09,32,12.70
2010,05,22,09,33,12.80
2010,05,22,09,34,12.90
2010,05,22,09,35,12.90
2010,05,22,09,36,12.90
2010,05,22,09,37,12.80
2010,05,22,09,38,12.90
2010,05,22,09,39,12.90
2010,05,22,09,40,12.90
2010,05,22,09,41,13.00
2010,05,22,09,42,13.00
2010,05,22,09,43,12.90
2010,05,22,09,44,13.00
2010,05,22,09,45,13.00
2010,05,22,09,46,12.90
2010,05,22,09,47,12.90
2010,05,22,09,48,12.90
2010,05,22,09,49,12.90
2010,05,22,09,50,12.90
2010,05,22,09,51,12.90
2010,05,22,09,52,12.80
2010,05,22,09,53,12.80
2010,05,22,09,54,12.90
2010,05,22,09,55,13.00
2010,05,22,09,56,13.00
2010,05,22,09,57,13.10
2010,05,22,09,58,13.00
2010,05,22,09,59,13.10
2010,05,22,10,00,13.10
2010,05,22,10,01,13.10
2010,05,22,10,02,13.10
2010,05,22,10,03,13.20
2010,05,22,10,04,13.10
2010,05,22,10,05,13.10
2010,05,22,10,06,13.10
2010,05,22,10,07,13.00
2010,05,22,10,08,13.00
2010,05,22,10,09,13.00
2010,05,22,10,10,13.10
2010,05,22,10,11,13.20
2010,05,22,10,12,13.20
2010,05,22,10,13,13.20
2010,05,22,10,14,13.30
2010,05,22,10,15,13.30
2010,05,22,10,16,13.10
2010,05,22,10,17,13.10
2010,05,22,10,18,13.00
2010,05,22,10,19,13.00
2010,05,22,10,20,13.00
2010,05,22,10,21,13.00
2010,05,22,10,22,12.90
2010,05,22,10,23,12.90
2010,05,22,10,24,12.90
2010,05,22,10,25,12.90
2010,05,22,10,26,13.00
2010,05,22,10,27,13.00
2010,05,22,10,28,13.00
2010,05,22,10,29,13.00
2010,05,22,10,30,13.10
2010,05,22,10,31,13.20
2010,05,22,10,32,13.30
2010,05,22,10,33,13.40
2010,05,22,10,34,13.30
2010,05,22,10,35,13.10
2010,05,22,10,36,13.10
2010,05,22,10,37,13.10
2010,05,22,10,38,13.10
2010,05,22,10,39,13.10
2010,05,22,10,40,13.20
2010,05,22,10,41,13.30
2010,05,22,10,42,13.30
2010,05,22,10,43,13.30
2010,05,22,10,44,13.30
2010,05,22,10,45,13.30
2010,05,22,10,46,13.20
2010,05,22,10,47,13.20
2010,05,22,10,48,13.40
2010,05,22,10,49,13.50
2010,05,22,10,50,13.60
2010,05,22,10,51,13.70
2010,05,22,10,52,13.70
2010,05,22,10,53,13.70
2010,05,22,10,54,13.60
2010,05,22,10,55,13.50
2010,05,22,10,56,13.60
2010,05,22,10,57,13.70
2010,05,22,10,58,13.60
2010,05,22,10,59,13.60
2010,05,22,11,00,13.60
2010,05,22,11,01,13.60
2010,05,22,11,02,13.50
2010,05,22,11,03,13.60
2010,05,22,11,04,13.60
2010,05,22,11,05,13.60
2010,05,22,11,06,13.70
2010,05,22,11,07,13.70
2010,05,22,11,08,13.70
2010,05,22,11,09,13.70
2010,05,22,11,10,13.70
2010,05,22,11,11,13.80
2010,05,22,11,12,13.80
2010,05,22,11,13,13.80
2010,05,22,11,14,13.80
2010,05,22,11,15,13.70
2010,05,22,11,16,13.70
2010,05,22,11,17,13.70
2010,05,22,11,18,13.60
2010,05,22,11,19,13.60
2010,05,22,11,20,13.60
2010,05,22,11,21,13.70
2010,05,22,11,22,13.70
2010,05,22,11,23,13.70
2010,05,22,11,24,13.60
2010,05,22,11,25,13.60
2010,05,22,11,26,13.70
2010,05,22,11,27,13.70
2010,05,22,11,28,13.70
2010,05,22,11,29,13.70
2010,05,22,11,30,13.70
2010,05,22,11,31,13.80
2010,05,22,11,32,13.90
2010,05,22,11,33,13.90
2010,05,22,11,34,13.90
2010,05,22,11,35,13.90
2010,05,22,11,36,13.70
2010,05,22,11,37,13.70
2010,05,22,11,38,13.80
2010,05,22,11,39,13.90
2010,05,22,11,40,13.90
2010,05,22,11,41,14.20
2010,05,22,11,42,14.20
2010,05,22,11,43,14.20
2010,05,22,11,44,14.30
2010,05,22,11,45,14.30
2010,05,22,11,46,14.20
2010,05,22,11,47,14.20
2010,05,22,11,48,14.20
2010,05,22,11,49,14.20
2010,05,22,11,50,14.20
2010,05,22,11,51,14.20
2010,05,22,11,52,14.40
2010,05,22,11,53,14.50
2010,05,22,11,54,14.50
2010,05,22,11,55,14.50
2010,05,22,11,56,14.40
2010,05,22,11,57,14.20
2010,05,22,11,58,14.20
2010,05,22,11,59,14.20
2010,05,22,12,00,14.20
2010,05,22,12,01,14.20
2010,05,22,12,02,14.20
2010,05,22,12,03,14.30
2010,05,22,12,04,14.20
2010,05,22,12,05,14.20
2010,05,22,12,06,14.30
2010,05,22,12,07,14.30
2010,05,22,12,08,14.30
2010,05,22,12,09,14.30
2010,05,22,12,10,14.30
2010,05,22,12,11,14.20
2010,05,22,12,12,14.20
2010,05,22,12,13,14.10
2010,05,22,12,14,14.00
2010,05,22,12,15,14.00
2010,05,22,12,16,13.90
2010,05,22,12,17,14.00
2010,05,22,12,18,14.20
2010,05,22,12,19,14.20
2010,05,22,12,20,14.20
2010,05,22,12,21,14.20
2010,05,22,12,22,14.30
2010,05,22,12,23,14.30
2010,05,22,12,24,14.40
2010,05,22,12,25,14.50
2010,05,22,12,26,14.60
2010,05,22,12,27,14.60
2010,05,22,12,28,14.60
2010,05,22,12,29,14.70
2010,05,22,12,30,14.60
2010,05,22,12,31,14.50
2010,05,22,12,32,14.40
2010,05,22,12,33,14.50
2010,05,22,12,34,14.50
2010,05,22,12,35,14.60
2010,05,22,12,36,14.60
2010,05,22,12,37,14.70
2010,05,22,12,38,14.80
2010,05,22,12,39,14.90
2010,05,22,12,40,14.90
2010,05,22,12,41,14.90
2010,05,22,12,42,14.80
2010,05,22,12,43,14.80
2010,05,22,12,44,14.80
2010,05,22,12,45,14.90
2010,05,22,12,46,15.00
2010,05,22,12,47,15.00
2010,05,22,12,48,15.00
2010,05,22,12,49,15.00
2010,05,22,12,50,15.00
2010,05,22,12,51,15.00
2010,05,22,12,52,15.10
2010,05,22,12,53,15.10
2010,05,22,12,54,15.20
2010,05,22,12,55,15.20
2010,05,22,12,56,15.20
2010,05,22,12,57,15.30
2010,05,22,12,58,15.30
2010,05,22,12,59,15.40
2010,05,22,13,00,15.50
2010,05,22,13,01,15.60
2010,05,22,13,02,15.70
2010,05,22,13,03,15.80
2010,05,22,13,04,16.00
2010,05,22,13,05,16.10
2010,05,22,13,06,16.20
2010,05,22,13,07,16.30
2010,05,22,13,08,16.30
2010,05,22,13,09,16.30
2010,05,22,13,10,16.20
2010,05,22,13,11,16.10
2010,05,22,13,12,16.20
2010,05,22,13,13,16.30
2010,05,22,13,14,16.30
2010,05,22,13,15,16.40
2010,05,22,13,16,16.20
2010,05,22,13,17,16.20
2010,05,22,13,18,16.10
2010,05,22,13,19,16.20
2010,05,22,13,20,16.10
2010,05,22,13,21,16.00
2010,05,22,13,22,15.90
2010,05,22,13,23,15.90
2010,05,22,13,24,15.90
2010,05,22,13,25,15.80
2010,05,22,13,26,15.80
2010,05,22,13,27,15.80
2010,05,22,13,28,15.80
2010,05,22,13,29,15.90
2010,05,22,13,30,15.90
2010,05,22,13,31,15.90
2010,05,22,13,32,15.90
2010,05,22,13,33,15.90
2010,05,22,13,34,15.90
2010,05,22,13,35,16.10
2010,05,22,13,36,16.10
2010,05,22,13,37,16.10
2010,05,22,13,38,16.20
2010,05,22,13,39,16.20
2010,05,22,13,40,16.30
2010,05,22,13,41,16.30
2010,05,22,13,42,16.30
2010,05,22,13,43,16.40
2010,05,22,13,44,16.60
2010,05,22,13,45,16.70
2010,05,22,13,46,16.70
2010,05,22,13,47,16.60
2010,05,22,13,48,16.50
2010,05,22,13,49,16.40
2010,05,22,13,50,16.40
2010,05,22,13,51,16.40
2010,05,22,13,52,16.40
2010,05,22,13,53,16.30
2010,05,22,13,54,16.10
2010,05,22,13,55,16.10
2010,05,22,13,56,16.10
2010,05,22,13,57,16.20
2010,05,22,13,58,16.30
2010,05,22,13,59,16.30
2010,05,22,14,00,16.30
2010,05,22,14,01,16.10
2010,05,22,14,02,16.10
2010,05,22,14,03,16.00
2010,05,22,14,04,15.90
2010,05,22,14,05,15.80
2010,05,22,14,06,15.80
2010,05,22,14,07,15.80
2010,05,22,14,08,15.80
2010,05,22,14,09,15.80
2010,05,22,14,10,15.80
2010,05,22,14,11,15.80
2010,05,22,14,12,15.80
2010,05,22,14,13,15.60
2010,05,22,14,14,15.60
2010,05,22,14,15,15.50
2010,05,22,14,16,15.50
2010,05,22,14,17,15.60
2010,05,22,14,18,15.60
2010,05,22,14,19,15.60
2010,05,22,14,20,15.60
2010,05,22,14,21,15.50
2010,05,22,14,22,15.60
2010,05,22,14,23,15.80
2010,05,22,14,24,15.80
2010,05,22,14,25,15.90
2010,05,22,14,26,15.90
2010,05,22,14,27,15.90
2010,05,22,14,28,15.80
2010,05,22,14,29,15.70
2010,05,22,14,30,15.50
2010,05,22,14,31,15.50
2010,05,22,14,32,15.50
2010,05,22,14,33,15.30
2010,05,22,14,34,15.30
2010,05,22,14,35,15.30
2010,05,22,14,36,15.40
2010,05,22,14,37,15.50
2010,05,22,14,38,15.60
2010,05,22,14,39,15.60
2010,05,22,14,40,15.60
2010,05,22,14,41,15.70
2010,05,22,14,42,15.80
2010,05,22,14,43,15.80
2010,05,22,14,44,15.90
2010,05,22,14,45,15.90
2010,05,22,14,46,15.90
2010,05,22,14,47,15.90
2010,05,22,14,48,15.90
2010,05,22,14,49,15.90
2010,05,22,14,50,16.00
2010,05,22,14,51,16.10
2010,05,22,14,52,16.10
2010,05,22,14,53,16.00
2010,05,22,14,54,15.90
2010,05,22,14,55,15.70
2010,05,22,14,56,15.70
2010,05,22,14,57,15.70
2010,05,22,14,58,15.80
2010,05,22,14,59,15.90
2010,05,22,15,00,16.00
2010,05,22,15,01,16.10
2010,05,22,15,02,16.10
2010,05,22,15,03,16.10
2010,05,22,15,04,16.10
2010,05,22,15,05,16.00
2010,05,22,15,06,16.00
2010,05,22,15,07,16.10
2010,05,22,15,08,16.10
2010,05,22,15,09,16.20
2010,05,22,15,10,16.20
2010,05,22,15,11,16.20
2010,05,22,15,12,16.10
2010,05,22,15,13,16.10
2010,05,22,15,14,16.00
2010,05,22,15,15,16.10
2010,05,22,15,16,16.10
2010,05,22,15,17,15.90
2010,05,22,15,18,15.90
2010,05,22,15,19,15.80
2010,05,22,15,20,15.80
2010,05,22,15,21,15.80
2010,05,22,15,22,15.60
2010,05,22,15,23,15.60
2010,05,22,15,24,15.50
2010,05,22,15,25,15.30
2010,05,22,15,26,15.30
2010,05,22,15,27,15.30
2010,05,22,15,28,15.30
2010,05,22,15,29,15.30
2010,05,22,15,30,15.30
2010,05,22,15,31,15.30
2010,05,22,15,32,15.30
2010,05,22,15,33,15.30
2010,05,22,15,34,15.20
2010,05,22,15,35,15.20
2010,05,22,15,36,15.10
2010,05,22,15,37,15.00
2010,05,22,15,38,15.00
2010,05,22,15,39,15.00
2010,05,22,15,40,14.90
2010,05,22,15,41,14.90
2010,05,22,15,42,14.90
2010,05,22,15,43,14.90
2010,05,22,15,44,14.90
2010,05,22,15,45,15.00
2010,05,22,15,46,15.00
2010,05,22,15,47,15.10
2010,05,22,15,48,15.00
2010,05,22,15,49,15.00
2010,05,22,15,50,15.00
2010,05,22,15,51,15.00
2010,05,22,15,52,15.00
2010,05,22,15,53,15.00
2010,05,22,15,54,15.00
2010,05,22,15,55,15.00
2010,05,22,15,56,14.90
2010,05,22,15,57,14.80
2010,05,22,15,58,14.70
2010,05,22,15,59,14.70
2010,05,22,16,00,14.60
2010,05,22,16,01,14.60
2010,05,22,16,02,14.50
2010,05,22,16,03,14.40
2010,05,22,16,04,14.30
2010,05,22,16,05,14.20
2010,05,22,16,06,14.20
2010,05,22,16,07,14.20
2010,05,22,16,08,14.20
2010,05,22,16,09,14.20
2010,05,22,16,10,14.10
2010,05,22,16,11,14.00
2010,05,22,16,12,14.00
2010,05,22,16,13,14.00
2010,05,22,16,14,14.00
2010,05,22,16,15,14.00
2010,05,22,16,16,14.00
2010,05,22,16,17,14.00
2010,05,22,16,18,13.80
2010,05,22,16,19,13.80
2010,05,22,16,20,13.80
2010,05,22,16,21,13.90
2010,05,22,16,22,13.90
2010,05,22,16,23,13.90
2010,05,22,16,24,13.90
2010,05,22,16,25,13.90
2010,05,22,16,26,13.90
2010,05,22,16,27,13.90
2010,05,22,16,28,13.90
2010,05,22,16,29,13.90
2010,05,22,16,30,13.80
2010,05,22,16,31,13.70
2010,05,22,16,32,13.70
2010,05,22,16,33,13.70
2010,05,22,16,34,13.70
2010,05,22,16,35,13.70
2010,05,22,16,36,13.70
2010,05,22,16,37,13.70
2010,05,22,16,38,13.80
2010,05,22,16,39,13.80
2010,05,22,16,40,13.80
2010,05,22,16,41,13.80
2010,05,22,16,42,13.80
2010,05,22,16,43,13.90
2010,05,22,16,44,13.90
2010,05,22,16,45,13.90
2010,05,22,16,46,13.90
2010,05,22,16,47,13.90
2010,05,22,16,48,13.70
2010,05,22,16,49,13.70
2010,05,22,16,50,13.70
2010,05,22,16,51,13.70
2010,05,22,16,52,13.70
2010,05,22,16,53,13.70
2010,05,22,16,54,13.70
2010,05,22,16,55,13.70
2010,05,22,16,56,13.70
2010,05,22,16,57,13.70
2010,05,22,16,58,13.50
2010,05,22,16,59,13.50
2010,05,22,17,00,13.30
2010,05,22,17,01,13.30
2010,05,22,17,02,13.30
2010,05,22,17,03,13.20
2010,05,22,17,04,13.10
2010,05,22,17,05,13.00
2010,05,22,17,06,12.90
2010,05,22,17,07,12.80
2010,05,22,17,08,12.80
2010,05,22,17,09,12.80
2010,05,22,17,10,12.80
2010,05,22,17,11,12.80
2010,05,22,17,12,12.80
2010,05,22,17,13,12.70
2010,05,22,17,14,12.70
2010,05,22,17,15,12.70
2010,05,22,17,16,12.60
2010,05,22,17,17,12.70
2010,05,22,17,18,12.70
2010,05,22,17,19,12.70
2010,05,22,17,20,12.70
2010,05,22,17,21,12.70
2010,05,22,17,22,12.80
2010,05,22,17,23,12.70
2010,05,22,17,24,12.70
2010,05,22,17,25,12.70
2010,05,22,17,26,12.60
2010,05,22,17,27,12.60
2010,05,22,17,28,12.50
2010,05,22,17,29,12.50
2010,05,22,17,30,12.50
2010,05,22,17,31,12.50
2010,05,22,17,32,12.50
2010,05,22,17,33,12.50
2010,05,22,17,34,12.50
2010,05,22,17,35,12.50
2010,05,22,17,36,12.40
2010,05,22,17,37,12.30
2010,05,22,17,38,12.30
2010,05,22,17,39,12.30
2010,05,22,17,40,12.30